Weather History for West Palm Beach, FL

Change the Weather History Date:

Wednesday, February 29, 2012

  Actual Average Record
Temperature  
Mean Temperature 77 °F 69 °F  
Max Temperature 82 °F 78 °F 88 °F (1948)
Min Temperature 71 °F 61 °F 41 °F (1940)
Degree Days  
Heating Degree Days 0 1  
Month to date heating degree days 22 49  
Since 1 July heating degree days 109 206  
Cooling Degree Days 12 5  
Month to date cooling degree days 211 132  
Year to date cooling degree days 316 240  
Growing Degree Days 26 (Base 50)    
Moisture  
Dew Point 68 °F    
Average Humidity 78    
Maximum Humidity 84    
Minimum Humidity 71    
Precipitation  
Precipitation 0.87 in 0.12 in 0.87 in (2012)
Month to date precipitation 3.82 2.82  
Year to date precipitation 4.20 5.95  
Snow  
Snow 0.00 in - - ()
Month to date snowfall 0.0  
Since 1 July snowfall 0.0  
Snow Depth 0.00 in    
Sea Level Pressure  
Sea Level Pressure 30.17 in    
Wind  
Wind Speed 11 mph (SE)    
Max Wind Speed 18 mph    
Max Gust Speed 35 mph    
Visibility 9 miles    
Events Rain    
T = Trace of Precipitation, MM = Missing Value Source: NWS Daily Summary

Daily Weather History Graph

Daily Weather History Graph

Search for Another Location

Airport:

Trip Planner

Search our weather history database for the weather conditions in past years. The results will help you decide how hot, cold, wet, or windy it might be!

Date:

Astronomy

Feb. 29, 2012 Rise Set
Actual Time 6:44 AM EST 6:21 PM EST
Civil Twilight 6:21 AM EST 6:44 PM EST
Nautical Twilight 5:54 AM EST 7:11 PM EST
Astronomical Twilight 5:27 AM EST 7:38 PM EST
Moon 11:16 AM EST (2/29) 12:25 AM EST (2/29)
Length of Visible Light 12h 23m
Length of Day
11h 36m
Waxing Crescent, 47% of the Moon is Illuminated
Feb 29
Waxing Crescent
Feb 29
First Quarter
Mar 8
Full
Mar 14
Last Quarter
Mar 22
New

Hourly Weather History & Observations

Time (EST) Temp. Dew Point Humidity Pressure Visibility Wind Dir Wind Speed Gust Speed Precip Events Conditions
12:53 AM 73.9 °F 66.9 °F 79% 30.20 in 10.0 mi East 12.7 mph - N/A   Partly Cloudy
1:53 AM 73.9 °F 66.9 °F 79% 30.19 in 10.0 mi East 11.5 mph - N/A   Scattered Clouds
2:53 AM 73.0 °F 66.9 °F 81% 30.17 in 10.0 mi East 9.2 mph - N/A   Scattered Clouds
3:53 AM 73.0 °F 66.9 °F 81% 30.18 in 10.0 mi East 9.2 mph - N/A   Scattered Clouds
4:53 AM 73.0 °F 66.9 °F 81% 30.18 in 10.0 mi East 10.4 mph - N/A   Scattered Clouds
5:53 AM 73.0 °F 66.9 °F 81% 30.18 in 10.0 mi East 10.4 mph - N/A   Scattered Clouds
6:53 AM 73.0 °F 66.9 °F 81% 30.18 in 10.0 mi East 12.7 mph - N/A   Scattered Clouds
7:53 AM 75.0 °F 68.0 °F 79% 30.19 in 10.0 mi ESE 11.5 mph - N/A   Scattered Clouds
8:53 AM 78.1 °F 68.0 °F 71% 30.20 in 10.0 mi SE 10.4 mph - N/A   Mostly Cloudy
9:23 AM 77.0 °F 68.0 °F 74% 30.21 in 10.0 mi SSE 12.7 mph - N/A   Mostly Cloudy
9:53 AM 79.0 °F 68.0 °F 69% 30.21 in 10.0 mi SE 15.0 mph - N/A   Mostly Cloudy
10:51 AM 77.0 °F 66.2 °F 69% 30.23 in 1.0 mi SSE 15.0 mph - 0.00 in Rain Heavy Rain
10:53 AM 75.9 °F 68.0 °F 76% 30.23 in 1.0 mi SSE 20.7 mph 26.5 mph 0.00 in Rain Heavy Rain
11:04 AM 73.4 °F 69.8 °F 88% 30.23 in 2.0 mi ESE 13.8 mph - 0.21 in Rain Heavy Rain
11:11 AM 73.4 °F 68.0 °F 83% 30.23 in 3.0 mi SSE 10.4 mph - 0.26 in Rain Heavy Rain
11:53 AM 72.9 °F 65.8 °F 79% 30.22 in 7.0 mi SE 5.8 mph - 0.68 in Rain Light Rain
12:53 PM 73.8 °F 67.3 °F 80% 30.19 in 10.0 mi SSW 5.8 mph - 0.19 in   Mostly Cloudy
1:40 PM 73.4 °F 68.0 °F 83% 30.16 in 10.0 mi SE 15.0 mph 19.6 mph N/A   Mostly Cloudy
1:53 PM 78.6 °F 67.5 °F 68% 30.16 in 10.0 mi ESE 12.7 mph - N/A   Mostly Cloudy
2:53 PM 79.3 °F 69.1 °F 71% 30.13 in 10.0 mi SE 13.8 mph - N/A   Mostly Cloudy
3:53 PM 79.0 °F 68.9 °F 71% 30.12 in 10.0 mi SSE 17.3 mph - N/A   Scattered Clouds
4:53 PM 78.1 °F 68.0 °F 71% 30.12 in 10.0 mi SE 13.8 mph - N/A   Scattered Clouds
5:53 PM 75.9 °F 68.0 °F 76% 30.12 in 10.0 mi SSE 13.8 mph - N/A   Scattered Clouds
6:53 PM 75.0 °F 68.0 °F 79% 30.12 in 10.0 mi SSE 8.1 mph - N/A   Scattered Clouds
7:53 PM 73.9 °F 68.0 °F 82% 30.13 in 10.0 mi SE 6.9 mph - N/A   Partly Cloudy
8:53 PM 73.9 °F 68.0 °F 82% 30.13 in 10.0 mi SSE 6.9 mph - N/A   Partly Cloudy
9:53 PM 73.9 °F 68.0 °F 82% 30.14 in 10.0 mi SE 5.8 mph - N/A   Partly Cloudy
10:53 PM 73.0 °F 68.0 °F 84% 30.13 in 10.0 mi SSE 4.6 mph - N/A   Partly Cloudy
11:53 PM 73.0 °F 68.0 °F 84% 30.12 in 10.0 mi SSE 5.8 mph - N/A   Partly Cloudy